SCP
0 0 0 0 0 0 0 0 0 0 0 0 0 0 1 -0 1 0 0 0 0 0 0 0 0 0 0 1 1 0 0 1 0 0 0 0 0 0 0 0 0 0 0
0 0 0 0 0 0 0 0 0 0 0 0 -0 -0 -0 -0 -0 -0 0 1 1 1 1 0 0 0 0 0 0 0 0 0 0 0 0 0 0 0 0 0 0 0 0
0 0 0 0 0 0 0 0 0 0 0 0 0 0 -0 -0 -0 0 0 0 0 0 0 0 0 0 0 1 0 0 0 0 0 0 0 0 0 0 0 0 0 0 0
0 0 0 0 0 0 0 0 0 0 0 0 0 0 0 0 0 0 0 0 0 0 0 0 0 0 0 0 0 0 0 0 0 0 0 0 0 0 0 0 0 0 0
0 0 0 0 0 0 0 0 0 0 0 0 0 0 0 0 0 0 0 0 0 0 0 0 0 0 0 0 0 0 0 0 0 0 0 0 0 0 0 0 0 -0 -0
0 0 0 0 0 0 0 0 0 0 0 0 0 0 0 0 0 0 0 0 0 0 0 0 0 0 0 0 0 0 0 0 0 0 0 0 0 0 0 0 0 0 0
0 0 0 0 0 0 0 0 0 0 0 0 0 0 0 0 0 0 0 0 0 0 0 0 0 0 0 0 0 0 0 0 0 0 0 0 0 0 0 0 0 0 0
0 0 0 0 0 0 0 0 0 0 0 0 0 0 0 -0 -0 -0 -0 -0 0 0 0 0 0 0 0 0 0 0 0 0 0 0 0 0 0 0 0 0 0 0 0
0 0 0 0 0 0 0 0 0 0 0 0 0 0 0 -0 -0 -0 -0 -0 -0 -0 -0 -0 0 0 0 0 0 0 0 0 0 0 0 0 0 0 0 0 0 0 0
1 0 0 0 0 0 0 0 0 -0 -0 -0 0 -0 -0 -0 0 0 0 0 0 0 0 0 0 0 0 0 0 0 0 0 0 0 0 0 0 0 0 0 0 0 0
0 0 0 0 0 0 0 0 0 0 -0 0 0 0 0 0 0 0 0 0 0 -0 -0 -0 -0 0 0 0 0 0 0 0 0 0 0 0 0 0 0 0 0 0 0
0 0 0 0 0 0 0 0 0 0 0 0 0 0 0 0 0 0 0 0 0 0 0 0 0 0 0 0 0 0 0 0 0 0 0 0 0 0 0 0 0 0 0
0 0 0 0 0 0 0 0 0 0 0 0 0 0 0 0 0 0 0 0 0 0 0 0 0 0 0 0 0 0 0 0 0 0 0 0 0 0 0 0 0 0 0
0 0 0 0 0 0 0 0 0 0 0 0 0 0 0 0 0 0 0 0 0 0 0 0 0 0 0 0 0 0 0 0 0 0 0 0 0 0 0 0 0 0 0
0 0 0 0 0 0 0 0 0 0 0 0 0 0 0 0 0 0 0 0 0 0 0 0 0 0 0 0 0 0 0 0 0 0 0 0 0 0 0 0 0 0 0
0 0 0 0 0 0 0 0 0 0 0 0 0 0 0 0 0 0 0 0 0 0 0 0 0 0 0 0 0 0 0 0 0 0 0 0 0 0 0 0 0 0 0
-0 0 0 0 0 0 0 0 0 0 0 0 0 0 0 0 0 0 0 0 0 0 0 0 0 0 0 0 0 0 0 0 0 0 0 0 0 0 0 0 0 0 0
0 0 0 0 0 0 0 0 0 0 0 0 0 0 0 0 0 0 0 0 0 0 0 0 0 0 0 0 0 0 0 0 0 0 0 0 0 0 0 0 0 0 0
0 0 0 0 0 0 0 0 0 0 0 0 0 0 0 0 0 0 0 0 0 0 0 0 0 0 0 0 0 0 0 0 0 0 0 0 0 0 0 0 0 0 0
0 0 0 0 0 0 0 0 0 0 0 0 0 0 0 0 0 0 0 0 0 0 0 0 0 0 0 0 0 0 0 0 0 0 0 0 0 0 0 0 0 0 0
0 0 0 0 0 0 0 0 0 0 0 0 0 0 0 0 0 0 0 0 0 0 0 0 0 0 0 0 0 0 0 0 0 0 0 0 0 0 0 0 0 0 0
0 0 0 0 0 0 0 0 0 0 0 0 0 0 0 0 0 0 0 0 0 0 0 0 0 0 0 0 0 0 0 0 0 0 0 0 0 0 0 0 0 0 0
0 0 0 0 0 0 0 0 0 0 0 0 0 0 0 0 0 0 0 0 0 0 0 0 0 0 0 0 0 0 0 0 0 0 0 0 0 0 0 0 0 0 0
0 0 0 0 0 0 0 0 0 0 0 0 0 0 0 0 0 0 0 0 0 0 0 0 0 0 0 0 0 0 0 0 0 0 0 0 0 0 0 0 0 0 0
0 0 0 0 0 0 0 0 0 0 0 0 0 0 0 0 0 0 0 0 0 0 0 0 0 0 0 0 0 0 0 0 0 0 0 0 0 0 0 0 0 0 0
0 0 0 0 0 0 0 0 0 0 0 0 0 0 0 0 0 0 0 0 0 0 0 0 0 0 0 0 0 0 0 0 0 0 0 0 0 0 0 0 0 0 0
Wind_Speed_500mb
15 20 24 25 33 37 39 39 36 34 43 50 51 51 55 26 33 38 40 36 44 46 46 48 52 52 52 54 52 55 56 57 60 60 61 56 49 53 55 44 33 34 32
23 24 29 36 43 45 40 36 31 33 35 41 43 52 53 56 61 50 55 38 38 42 45 46 48 47 51 59 56 52 58 60 63 59 55 59 56 45 36 29 27 25 32
29 30 35 38 44 44 40 37 29 24 25 27 29 31 36 45 51 55 47 44 44 46 49 52 58 57 57 55 55 54 55 61 62 63 53 32 17 19 22 38 32 26 30
35 37 42 40 40 35 31 31 29 29 27 21 20 24 26 31 31 30 31 33 36 42 48 50 55 53 51 57 58 59 61 47 54 60 64 54 43 29 36 45 60 58 41
47 44 40 41 36 33 32 27 21 17 13 13 16 17 15 11 8 15 18 20 25 32 35 41 43 45 45 50 53 52 49 49 48 50 54 47 42 47 38 49 64 72 61
50 50 46 47 42 33 29 24 19 12 10 9 6 6 2 8 6 11 14 20 22 21 21 20 21 23 25 27 30 35 39 39 42 45 49 56 48 60 45 64 80 71 76
46 54 58 53 47 39 30 25 21 18 9 4 5 10 17 17 18 21 22 22 25 27 29 31 33 33 31 30 29 30 30 32 34 33 36 44 44 49 57 59 65 63 62
57 67 70 65 53 41 35 33 29 23 15 11 12 15 15 18 24 28 29 33 39 40 40 41 43 44 44 43 40 38 37 35 36 38 40 38 35 32 29 34 39 46 48
74 78 80 67 58 51 47 39 33 27 24 20 18 17 20 19 21 26 37 42 42 46 49 52 52 48 46 46 45 45 46 44 44 44 44 44 42 41 40 45 46 43 42
75 86 78 70 59 53 48 41 31 27 24 19 10 14 18 20 21 29 34 41 45 51 56 62 64 58 53 52 51 50 49 51 50 50 50 50 51 50 50 49 47 48 55
74 86 75 68 60 54 48 40 34 28 24 15 5 4 12 20 22 24 31 36 40 46 53 56 52 51 51 52 53 53 53 54 52 51 52 51 52 52 51 52 53 51 48
74 82 72 63 59 53 47 40 35 27 22 16 10 9 11 12 16 22 30 36 42 49 54 49 49 53 57 59 61 62 62 64 66 65 64 62 61 60 57 55 52 50 51
70 68 64 61 55 50 44 38 32 29 21 16 11 9 13 17 22 29 36 42 46 51 51 51 54 58 62 67 68 69 72 72 73 73 74 75 72 74 72 69 68 63 60
60 59 58 54 47 41 36 33 31 25 17 12 9 15 19 25 31 37 42 41 43 46 49 53 58 64 71 78 80 80 79 80 81 79 78 77 77 81 82 81 81 77 76
42 40 40 38 36 32 29 23 20 18 18 16 18 24 29 33 37 39 41 44 49 54 59 66 73 80 88 89 82 75 71 68 67 63 61 60 60 62 67 74 80 84 85
48 41 39 35 31 29 27 25 20 18 17 21 27 33 36 36 39 43 48 54 59 65 72 80 89 92 84 72 62 56 52 48 48 49 46 46 46 49 53 58 62 66 74
51 46 38 34 27 20 12 9 13 17 24 28 31 34 38 43 48 55 62 69 75 82 88 87 81 71 58 47 43 44 45 45 45 47 48 48 47 49 54 55 53 53 54
36 36 27 19 12 4 6 11 16 23 26 30 38 45 51 57 65 72 79 85 86 83 75 67 58 50 39 37 38 41 44 45 46 46 46 49 48 48 51 49 50 48 45
34 31 22 12 5 4 10 15 20 27 36 43 52 58 66 73 79 83 81 76 71 63 57 50 41 37 35 35 38 41 43 46 48 49 48 46 46 41 40 41 44 45 45
28 20 12 3 8 16 23 30 37 44 51 59 65 69 72 73 72 67 63 58 54 48 42 39 36 36 36 36 38 42 47 51 51 51 49 48 47 46 45 47 47 51 50
16 10 9 16 26 34 40 45 50 53 56 59 61 63 62 59 55 51 46 44 40 36 36 43 36 35 39 41 44 45 47 46 47 50 53 54 53 53 51 50 48 51 49
7 12 20 27 32 39 44 45 47 50 53 55 54 52 47 43 41 39 35 32 32 35 41 44 40 42 47 49 46 47 42 42 48 54 56 60 56 57 56 56 55 54 54
14 19 24 28 33 37 42 46 47 48 48 46 43 38 34 31 30 32 33 33 34 37 39 43 48 53 54 48 47 46 47 50 53 54 57 61 63 63 56 49 49 50 51
15 21 25 29 33 36 37 39 41 41 41 39 36 34 33 32 30 29 32 36 35 37 40 45 50 51 50 50 52 54 56 57 61 64 65 61 59 47 41 40 41 43 45
18 22 26 30 34 36 36 37 38 39 39 37 35 35 34 36 35 33 35 36 32 32 37 39 43 49 49 49 51 49 52 56 56 51 49 49 50 50 45 39 33 33 35
22 25 28 31 35 39 41 42 42 40 39 39 38 39 39 38 38 41 44 34 32 28 26 30 37 38 37 43 41 43 42 41 45 53 59 56 53 51 48 44 38 31 27
Wind_Direction_500mb
207 213 212 198 201 201 210 223 235 239 251 261 248 254 257 281 297 312 311 295 291 288 292 293 293 294 293 291 290 286 283 289 297 298 289 282 282 276 271 270 279 283 268
209 215 218 210 203 205 211 220 235 236 254 252 259 254 267 281 295 293 295 293 287 290 288 290 290 292 289 284 287 291 282 283 294 295 288 289 279 271 276 267 263 273 263
213 218 215 209 207 205 210 222 228 241 244 246 256 267 275 285 294 288 282 276 277 278 279 286 280 280 276 279 283 282 277 282 288 289 284 272 250 274 247 282 278 279 278
202 214 210 213 207 208 219 229 230 233 245 266 269 274 281 298 309 308 298 291 280 276 277 276 278 277 279 275 275 275 278 285 287 285 281 275 269 269 280 255 282 273 265
194 196 206 204 202 210 218 219 220 229 250 271 286 304 311 315 301 303 314 325 319 302 296 282 280 281 281 278 278 282 281 282 281 277 283 272 260 252 258 261 268 272 273
194 192 197 203 201 195 190 180 188 205 249 279 318 340 19 89 68 54 32 26 21 18 11 7 350 338 320 308 304 297 297 291 288 282 272 283 273 272 264 265 265 262 266
201 187 191 185 181 175 176 182 196 190 182 135 94 73 68 59 49 39 25 9 358 355 351 344 339 334 333 331 324 315 309 297 292 289 288 276 274 266 273 274 274 265 263
191 185 180 175 177 173 175 177 171 150 146 143 106 72 45 17 10 12 11 8 6 359 350 340 332 324 318 313 310 306 302 296 291 286 282 280 284 282 273 275 279 279 274
183 178 172 177 172 170 173 163 156 152 148 132 98 47 21 6 6 11 7 2 0 359 354 346 339 328 319 313 308 305 303 299 296 292 287 286 282 282 276 269 264 262 267
176 175 173 172 168 170 165 166 161 150 145 135 92 36 18 10 357 348 342 343 341 337 336 335 330 322 318 314 312 306 300 296 293 294 291 287 284 280 278 276 273 269 266
175 172 169 168 167 166 170 168 167 168 161 155 148 320 331 332 329 324 325 329 329 330 330 329 329 323 321 317 312 310 307 303 299 295 294 292 290 287 282 277 275 273 270
173 170 168 169 169 172 172 173 178 185 180 185 211 252 266 286 298 305 312 316 320 324 324 324 327 325 324 322 315 309 305 303 300 298 296 293 292 289 289 287 285 282 276
171 167 169 171 174 172 176 184 192 195 196 203 215 252 273 278 292 302 308 312 316 318 318 319 317 317 316 315 310 304 301 296 292 291 290 289 287 285 283 281 279 278 277
163 167 171 174 174 175 184 194 198 196 205 219 236 259 275 289 295 297 300 302 306 306 306 307 307 307 307 307 304 299 295 292 290 289 287 284 281 279 278 276 275 274 274
155 164 173 168 172 181 185 181 180 195 210 235 263 278 283 285 289 291 292 297 299 302 304 304 304 305 307 307 304 299 295 293 291 289 287 285 284 281 279 278 276 274 270
119 129 139 143 142 145 159 173 189 217 247 270 277 277 278 283 286 291 295 298 300 302 303 304 305 306 306 303 303 302 301 301 300 300 298 293 290 291 287 280 275 270 267
109 111 110 117 125 136 154 217 243 265 274 275 275 281 288 293 294 296 297 299 300 302 304 306 305 306 306 309 305 303 306 308 308 306 303 299 298 297 295 292 282 275 269
123 121 119 108 114 144 236 263 273 273 274 282 286 289 291 294 295 298 300 301 304 307 310 311 312 311 315 315 313 307 308 309 308 307 304 300 300 298 294 294 287 279 270
108 106 109 105 103 271 276 283 289 294 293 291 291 294 298 299 300 302 304 308 309 312 315 316 318 320 322 315 315 316 314 312 312 309 304 301 299 298 295 292 285 279 270
101 98 97 63 298 292 300 302 301 298 298 297 298 301 303 305 306 309 313 314 317 320 324 327 329 326 326 327 326 323 320 320 320 319 314 309 304 297 293 294 290 287 279
89 59 357 320 314 311 308 307 306 305 306 308 310 309 309 311 314 317 319 322 327 331 333 329 329 335 333 331 327 326 324 324 320 318 316 311 306 300 294 291 286 281 281
28 332 317 312 313 315 316 316 317 317 316 314 313 315 318 320 321 322 327 329 329 333 332 328 331 335 334 332 328 324 325 322 319 319 320 317 316 312 302 287 280 280 278
344 338 333 330 328 328 327 325 325 324 323 324 326 327 326 327 330 335 335 335 332 332 328 327 333 335 335 337 331 329 329 332 329 326 320 315 315 312 304 293 282 279 275
353 345 342 341 343 343 341 338 336 335 337 337 339 340 342 346 346 342 340 336 335 332 331 334 330 329 333 338 338 339 341 340 335 328 322 320 317 315 308 296 285 280 275
15 8 6 5 3 1 0 357 353 349 350 351 351 351 353 351 347 345 344 343 344 342 332 327 323 326 332 337 340 344 340 340 341 345 355 358 354 351 345 329 312 298 286
31 19 15 13 15 15 12 10 4 359 356 357 358 358 355 353 352 350 351 358 348 344 333 319 318 321 323 331 343 341 340 339 343 347 346 346 344 339 334 333 333 320 303
Wind_Speed_850mb
15 20 24 25 33 37 39 39 36 34 43 50 51 51 55 26 33 38 40 36 44 46 46 48 52 52 52 54 52 55 56 57 60 60 61 56 49 53 55 44 33 34 32
23 24 29 36 43 45 40 36 31 33 35 41 43 52 53 56 61 50 55 38 38 42 45 46 48 47 51 59 56 52 58 60 63 59 55 59 56 45 36 29 27 25 32
29 30 35 38 44 44 40 37 29 24 25 27 29 31 36 45 51 55 47 44 44 46 49 52 58 57 57 55 55 54 55 61 62 63 53 32 17 19 22 38 32 26 30
35 37 42 40 40 35 31 31 29 29 27 21 20 24 26 31 31 30 31 33 36 42 48 50 55 53 51 57 58 59 61 47 54 60 64 54 43 29 36 45 60 58 41
47 44 40 41 36 33 32 27 21 17 13 13 16 17 15 11 8 15 18 20 25 32 35 41 43 45 45 50 53 52 49 49 48 50 54 47 42 47 38 49 64 72 61
50 50 46 47 42 33 29 24 19 12 10 9 6 6 2 8 6 11 14 20 22 21 21 20 21 23 25 27 30 35 39 39 42 45 49 56 48 60 45 64 80 71 76
46 54 58 53 47 39 30 25 21 18 9 4 5 10 17 17 18 21 22 22 25 27 29 31 33 33 31 30 29 30 30 32 34 33 36 44 44 49 57 59 65 63 62
57 67 70 65 53 41 35 33 29 23 15 11 12 15 15 18 24 28 29 33 39 40 40 41 43 44 44 43 40 38 37 35 36 38 40 38 35 32 29 34 39 46 48
74 78 80 67 58 51 47 39 33 27 24 20 18 17 20 19 21 26 37 42 42 46 49 52 52 48 46 46 45 45 46 44 44 44 44 44 42 41 40 45 46 43 42
75 86 78 70 59 53 48 41 31 27 24 19 10 14 18 20 21 29 34 41 45 51 56 62 64 58 53 52 51 50 49 51 50 50 50 50 51 50 50 49 47 48 55
74 86 75 68 60 54 48 40 34 28 24 15 5 4 12 20 22 24 31 36 40 46 53 56 52 51 51 52 53 53 53 54 52 51 52 51 52 52 51 52 53 51 48
74 82 72 63 59 53 47 40 35 27 22 16 10 9 11 12 16 22 30 36 42 49 54 49 49 53 57 59 61 62 62 64 66 65 64 62 61 60 57 55 52 50 51
70 68 64 61 55 50 44 38 32 29 21 16 11 9 13 17 22 29 36 42 46 51 51 51 54 58 62 67 68 69 72 72 73 73 74 75 72 74 72 69 68 63 60
60 59 58 54 47 41 36 33 31 25 17 12 9 15 19 25 31 37 42 41 43 46 49 53 58 64 71 78 80 80 79 80 81 79 78 77 77 81 82 81 81 77 76
42 40 40 38 36 32 29 23 20 18 18 16 18 24 29 33 37 39 41 44 49 54 59 66 73 80 88 89 82 75 71 68 67 63 61 60 60 62 67 74 80 84 85
48 41 39 35 31 29 27 25 20 18 17 21 27 33 36 36 39 43 48 54 59 65 72 80 89 92 84 72 62 56 52 48 48 49 46 46 46 49 53 58 62 66 74
51 46 38 34 27 20 12 9 13 17 24 28 31 34 38 43 48 55 62 69 75 82 88 87 81 71 58 47 43 44 45 45 45 47 48 48 47 49 54 55 53 53 54
36 36 27 19 12 4 6 11 16 23 26 30 38 45 51 57 65 72 79 85 86 83 75 67 58 50 39 37 38 41 44 45 46 46 46 49 48 48 51 49 50 48 45
34 31 22 12 5 4 10 15 20 27 36 43 52 58 66 73 79 83 81 76 71 63 57 50 41 37 35 35 38 41 43 46 48 49 48 46 46 41 40 41 44 45 45
28 20 12 3 8 16 23 30 37 44 51 59 65 69 72 73 72 67 63 58 54 48 42 39 36 36 36 36 38 42 47 51 51 51 49 48 47 46 45 47 47 51 50
16 10 9 16 26 34 40 45 50 53 56 59 61 63 62 59 55 51 46 44 40 36 36 43 36 35 39 41 44 45 47 46 47 50 53 54 53 53 51 50 48 51 49
7 12 20 27 32 39 44 45 47 50 53 55 54 52 47 43 41 39 35 32 32 35 41 44 40 42 47 49 46 47 42 42 48 54 56 60 56 57 56 56 55 54 54
14 19 24 28 33 37 42 46 47 48 48 46 43 38 34 31 30 32 33 33 34 37 39 43 48 53 54 48 47 46 47 50 53 54 57 61 63 63 56 49 49 50 51
15 21 25 29 33 36 37 39 41 41 41 39 36 34 33 32 30 29 32 36 35 37 40 45 50 51 50 50 52 54 56 57 61 64 65 61 59 47 41 40 41 43 45
18 22 26 30 34 36 36 37 38 39 39 37 35 35 34 36 35 33 35 36 32 32 37 39 43 49 49 49 51 49 52 56 56 51 49 49 50 50 45 39 33 33 35
22 25 28 31 35 39 41 42 42 40 39 39 38 39 39 38 38 41 44 34 32 28 26 30 37 38 37 43 41 43 42 41 45 53 59 56 53 51 48 44 38 31 27
Wind_Direction_850mb
207 213 212 198 201 201 210 223 235 239 251 261 248 254 257 281 297 312 311 295 291 288 292 293 293 294 293 291 290 286 283 289 297 298 289 282 282 276 271 270 279 283 268
209 215 218 210 203 205 211 220 235 236 254 252 259 254 267 281 295 293 295 293 287 290 288 290 290 292 289 284 287 291 282 283 294 295 288 289 279 271 276 267 263 273 263
213 218 215 209 207 205 210 222 228 241 244 246 256 267 275 285 294 288 282 276 277 278 279 286 280 280 276 279 283 282 277 282 288 289 284 272 250 274 247 282 278 279 278
202 214 210 213 207 208 219 229 230 233 245 266 269 274 281 298 309 308 298 291 280 276 277 276 278 277 279 275 275 275 278 285 287 285 281 275 269 269 280 255 282 273 265
194 196 206 204 202 210 218 219 220 229 250 271 286 304 311 315 301 303 314 325 319 302 296 282 280 281 281 278 278 282 281 282 281 277 283 272 260 252 258 261 268 272 273
194 192 197 203 201 195 190 180 188 205 249 279 318 340 19 89 68 54 32 26 21 18 11 7 350 338 320 308 304 297 297 291 288 282 272 283 273 272 264 265 265 262 266
201 187 191 185 181 175 176 182 196 190 182 135 94 73 68 59 49 39 25 9 358 355 351 344 339 334 333 331 324 315 309 297 292 289 288 276 274 266 273 274 274 265 263
191 185 180 175 177 173 175 177 171 150 146 143 106 72 45 17 10 12 11 8 6 359 350 340 332 324 318 313 310 306 302 296 291 286 282 280 284 282 273 275 279 279 274
183 178 172 177 172 170 173 163 156 152 148 132 98 47 21 6 6 11 7 2 0 359 354 346 339 328 319 313 308 305 303 299 296 292 287 286 282 282 276 269 264 262 267
176 175 173 172 168 170 165 166 161 150 145 135 92 36 18 10 357 348 342 343 341 337 336 335 330 322 318 314 312 306 300 296 293 294 291 287 284 280 278 276 273 269 266
175 172 169 168 167 166 170 168 167 168 161 155 148 320 331 332 329 324 325 329 329 330 330 329 329 323 321 317 312 310 307 303 299 295 294 292 290 287 282 277 275 273 270
173 170 168 169 169 172 172 173 178 185 180 185 211 252 266 286 298 305 312 316 320 324 324 324 327 325 324 322 315 309 305 303 300 298 296 293 292 289 289 287 285 282 276
171 167 169 171 174 172 176 184 192 195 196 203 215 252 273 278 292 302 308 312 316 318 318 319 317 317 316 315 310 304 301 296 292 291 290 289 287 285 283 281 279 278 277
163 167 171 174 174 175 184 194 198 196 205 219 236 259 275 289 295 297 300 302 306 306 306 307 307 307 307 307 304 299 295 292 290 289 287 284 281 279 278 276 275 274 274
155 164 173 168 172 181 185 181 180 195 210 235 263 278 283 285 289 291 292 297 299 302 304 304 304 305 307 307 304 299 295 293 291 289 287 285 284 281 279 278 276 274 270
119 129 139 143 142 145 159 173 189 217 247 270 277 277 278 283 286 291 295 298 300 302 303 304 305 306 306 303 303 302 301 301 300 300 298 293 290 291 287 280 275 270 267
109 111 110 117 125 136 154 217 243 265 274 275 275 281 288 293 294 296 297 299 300 302 304 306 305 306 306 309 305 303 306 308 308 306 303 299 298 297 295 292 282 275 269
123 121 119 108 114 144 236 263 273 273 274 282 286 289 291 294 295 298 300 301 304 307 310 311 312 311 315 315 313 307 308 309 308 307 304 300 300 298 294 294 287 279 270
108 106 109 105 103 271 276 283 289 294 293 291 291 294 298 299 300 302 304 308 309 312 315 316 318 320 322 315 315 316 314 312 312 309 304 301 299 298 295 292 285 279 270
101 98 97 63 298 292 300 302 301 298 298 297 298 301 303 305 306 309 313 314 317 320 324 327 329 326 326 327 326 323 320 320 320 319 314 309 304 297 293 294 290 287 279
89 59 357 320 314 311 308 307 306 305 306 308 310 309 309 311 314 317 319 322 327 331 333 329 329 335 333 331 327 326 324 324 320 318 316 311 306 300 294 291 286 281 281
28 332 317 312 313 315 316 316 317 317 316 314 313 315 318 320 321 322 327 329 329 333 332 328 331 335 334 332 328 324 325 322 319 319 320 317 316 312 302 287 280 280 278
344 338 333 330 328 328 327 325 325 324 323 324 326 327 326 327 330 335 335 335 332 332 328 327 333 335 335 337 331 329 329 332 329 326 320 315 315 312 304 293 282 279 275
353 345 342 341 343 343 341 338 336 335 337 337 339 340 342 346 346 342 340 336 335 332 331 334 330 329 333 338 338 339 341 340 335 328 322 320 317 315 308 296 285 280 275
15 8 6 5 3 1 0 357 353 349 350 351 351 351 353 351 347 345 344 343 344 342 332 327 323 326 332 337 340 344 340 340 341 345 355 358 354 351 345 329 312 298 286
31 19 15 13 15 15 12 10 4 359 356 357 358 358 355 353 352 350 351 358 348 344 333 319 318 321 323 331 343 341 340 339 343 347 346 346 344 339 334 333 333 320 303